Location: Miles
(41.4492°N, 81.6087°W)
Time: 01:04:26
(UTC+00:00)

Courier 1B Rocket - Pass Details

Date: 16 September 2024
Orbit: 920 x 1201 km, 28.3° (Epoch: 15 October)

Event Time Altitude Azimuth Distance (km) Brightness Sun altitude
Rises 01:07:56 0° 257° (WSW) 3,864 9.1 -17.9°
Reaches altitude 10° 01:11:24 10° 241° (WSW) 2,958 8.1 -18.5°
Maximum altitude 01:16:29 20° 197° (SSW) 2,341 6.9 -19.4°
Enters shadow 01:20:10 14° 163° (SSE) 2,735 7.0 -20.0°
Drops below altitude 10° 01:21:45 10° 152° (SSE) 3,076 - -20.3°
Sets 01:25:27 0° 137° (SE) 4,065 - -20.9°
